This is the latest recevied weather packets stored in our database for station/object SQ3MKP-13. If no packets are shown the sender has not sent any weather packets the latest 10 day(s).
| Time | Temp. | Humidity | Pressure | Rain* | Wind** | Luminosity | Snow |
|---|---|---|---|---|---|---|---|
| 1777817778 | 27.22° C | 23% | 1002.6 hPa | - | - | 75 W/m² | - |
| 1777817477 | 27.78° C | 24% | 1002.7 hPa | - | - | 76 W/m² | - |
| 1777817176 | 27.22° C | 24% | 1002.7 hPa | - | - | 388 W/m² | - |
| 1777816875 | 27.78° C | 24% | 1002.8 hPa | - | - | 77 W/m² | - |
| 1777816574 | 27.78° C | 23% | 1002.8 hPa | - | - | 78 W/m² | - |
| 1777816273 | 27.78° C | 23% | 1002.8 hPa | - | - | 211 W/m² | - |
| 1777815972 | 27.78° C | 24% | 1002.8 hPa | - | - | 468 W/m² | - |
| 1777815672 | 27.78° C | 23% | 1003 hPa | - | - | 484 W/m² | - |
| 1777815371 | 27.78° C | 24% | 1003.1 hPa | - | - | 494 W/m² | - |
| 1777815070 | 27.78° C | 22% | 1003.2 hPa | - | - | 509 W/m² | - |
| 1777814769 | 27.78° C | 23% | 1003.2 hPa | - | - | 526 W/m² | - |
| 1777814468 | 27.78° C | 24% | 1003.2 hPa | - | - | 535 W/m² | - |
| 1777814167 | 27.22° C | 24% | 1003.3 hPa | - | - | 547 W/m² | - |
| 1777813866 | 27.22° C | 24% | 1003.3 hPa | - | - | 561 W/m² | - |
| 1777813565 | 27.22° C | 23% | 1003.5 hPa | - | - | 570 W/m² | - |
| 1777813264 | 27.78° C | 24% | 1003.4 hPa | - | - | 583 W/m² | - |
| 1777812963 | 27.78° C | 23% | 1003.6 hPa | - | - | 593 W/m² | - |
| 1777812662 | 27.22° C | 24% | 1003.5 hPa | - | - | 607 W/m² | - |
| 1777812361 | 27.22° C | 24% | 1003.6 hPa | - | - | 616 W/m² | - |
| 1777812061 | 27.22° C | 24% | 1003.7 hPa | - | - | 619 W/m² | - |
| 1777811760 | 27.22° C | 24% | 1003.8 hPa | - | - | 626 W/m² | - |
| 1777811459 | 27.22° C | 24% | 1003.7 hPa | - | - | 635 W/m² | - |
| 1777811158 | 27.78° C | 23% | 1003.8 hPa | - | - | 648 W/m² | - |
| 1777810857 | 27.22° C | 22% | 1003.8 hPa | - | - | 656 W/m² | - |
| 1777810556 | 27.22° C | 23% | 1003.9 hPa | - | - | 658 W/m² | - |
* Rain since midnight (hover to see other rain measurements)
** Current wind speed in m/s (hover to see current wind gust speed)